This is the latest recevied weather packets stored in our database for station/object N9ALD. If no packets are shown the sender has not sent any weather packets the latest 10 day(s).
| Time | Temp. | Humidity | Pressure | Rain* | Wind** | Luminosity | Snow |
|---|---|---|---|---|---|---|---|
| 1777577150 | 15° C | 54% | 1013.3 hPa | 0 mm | - | 723 W/m² | - |
| 1777576846 | 15° C | 46% | 1013.3 hPa | 0 mm | - | 653 W/m² | - |
| 1777576544 | 15.56° C | 43% | 1013.3 hPa | 0 mm | - | 165 W/m² | - |
| 1777576241 | 15.56° C | 44% | 1013.5 hPa | 0 mm | - | 827 W/m² | - |
| 1777575937 | 15.56° C | 48% | 1013.5 hPa | 0 mm | - | 818 W/m² | - |
| 1777575634 | 15.56° C | 45% | 1013.6 hPa | 0 mm | - | 827 W/m² | - |
| 1777575330 | 15° C | 47% | 1013.7 hPa | 0 mm | - | 777 W/m² | - |
| 1777575026 | 15° C | 54% | 1013.5 hPa | 0 mm | - | 790 W/m² | - |
| 1777574722 | 15° C | 49% | 1013.5 hPa | 0 mm | - | 841 W/m² | - |
| 1777574420 | 15° C | 51% | 1013.6 hPa | 0 mm | - | 903 W/m² | - |
| 1777574115 | 15° C | 46% | 1013.5 hPa | 0 mm | - | 896 W/m² | - |
| 1777573811 | 14.44° C | 51% | 1013.5 hPa | 0 mm | - | 857 W/m² | - |
| 1777573506 | 14.44° C | 47% | 1013.5 hPa | 0 mm | - | 818 W/m² | - |
| 1777573202 | 14.44° C | 49% | 1013.8 hPa | 0 mm | - | 834 W/m² | - |
| 1777572899 | 13.89° C | 47% | 1013.6 hPa | 0 mm | - | 230 W/m² | - |
| 1777572594 | 14.44° C | 46% | 1013.6 hPa | 0 mm | - | 219 W/m² | - |
| 1777572289 | 14.44° C | 51% | 1013.8 hPa | 0 mm | - | 849 W/m² | - |
| 1777571985 | 14.44° C | 48% | 1013.8 hPa | 0 mm | - | 790 W/m² | - |
| 1777571685 | 14.44° C | 49% | 1013.8 hPa | 0 mm | - | 795 W/m² | - |
| 1777571384 | 14.44° C | 47% | 1014 hPa | 0 mm | - | 298 W/m² | - |
| 1777571079 | 13.89° C | 52% | 1013.9 hPa | 0 mm | - | 775 W/m² | - |
| 1777570775 | 13.89° C | 46% | 1014 hPa | 0 mm | - | 783 W/m² | - |
| 1777570472 | 13.89° C | 48% | 1013.9 hPa | 0 mm | - | 786 W/m² | - |
| 1777570167 | 13.89° C | 45% | 1014.1 hPa | 0 mm | - | 775 W/m² | - |
| 1777569864 | 13.33° C | 54% | 1014.1 hPa | 0 mm | - | 824 W/m² | - |
* Rain latest hour (hover to see other rain measurements)
** Current wind speed in m/s (hover to see current wind gust speed)